DW0687 Weather Reports


Display with metric or nautical units.
time (UTC)temp
F
wind
direction
speed
MPH
gust
MPH
rain 1hr
in
rain 24hr
in
rain mn
in
humidity
%
barometer
mb
20260906192017 73 251 4.0 11.0 0.00 0.00 0.00 82 1018.2
20260906191532 74 215 4.0 11.0 0.00 0.00 0.00 80 1018.2
20260906191016 74 221 2.0 10.0 0.00 0.00 0.00 80 1017.9
20260906190512 74 131 3.0 15.0 0.00 0.00 0.00 79 1017.8
20260906190029 76 211 5.0 15.0 0.00 0.00 0.00 76 1017.6
20260906185513 78 193 3.0 17.0 0.00 0.00 0.00 74 1017.4
20260906185014 81 205 5.0 17.0 0.00 0.00 0.00 72 1016.9
20260906184523 83 199 0.0 3.0 0.00 0.00 0.00 77 1016.6
20260906184005 83 234 1.0 3.0 0.00 0.00 0.00 77 1016.7
20260906183505 82 241 0.0 2.0 0.00 0.00 0.00 78 1016.6
20260906183007 82 214 0.0 3.0 0.00 0.00 0.00 80 1016.8
20260906182507 82 214 0.0 3.0 0.00 0.00 0.00 80 1017.0
20260906182011 81 330 0.0 3.0 0.00 0.00 0.00 82 1017.0
20260906181533 81 330 0.0 5.0 0.00 0.00 0.00 83 1016.9
20260906181011 81 226 0.0 6.0 0.00 0.00 0.00 84 1016.8
20260906180512 81 271 1.0 6.0 0.00 0.00 0.00 84 1016.8
20260906180020 80 276 1.0 8.0 0.00 0.00 0.00 84 1016.7
20260906175512 80 305 1.0 8.0 0.00 0.00 0.00 84 1016.7
20260906175015 80 309 1.0 6.0 0.00 0.00 0.00 84 1016.8
20260906174523 80 4 1.0 5.0 0.00 0.00 0.00 85 1017.0
20260906174016 80 232 0.0 5.0 0.00 0.00 0.00 85 1017.2
20260906173516 79 279 0.0 7.0 0.00 0.00 0.00 85 1017.3
20260906173006 79 279 0.0 7.0 0.00 0.00 0.00 85 1017.5
20260906172506 80 217 0.0 5.0 0.00 0.00 0.00 84 1017.5
20260906172006 80 251 0.0 3.0 0.00 0.00 0.00 84 1017.5
20260906171513 80 251 0.0 3.0 0.00 0.00 0.00 84 1017.3
20260906171009 80 275 0.0 4.0 0.00 0.00 0.00 84 1017.6
20260906170510 80 227 1.0 4.0 0.00 0.00 0.00 84 1017.7
20260906170018 80 207 0.0 5.0 0.00 0.00 0.00 84 1017.8
20260906165515 80 210 0.0 5.0 0.00 0.00 0.00 84 1017.7
20260906165012 80 289 0.0 3.0 0.00 0.00 0.00 84 1017.8
20260906164527 80 274 0.0 8.0 0.00 0.00 0.00 84 1017.8
20260906164014 80 214 3.0 8.0 0.00 0.00 0.00 84 1017.3
20260906163515 80 226 1.0 6.0 0.00 0.00 0.00 83 1017.4
20260906163042 80 332 0.0 9.0 0.00 0.00 0.00 83 1017.5
20260906162516 80 223 2.0 9.0 0.00 0.00 0.00 83 1017.0
20260906162015 80 203 4.0 8.0 0.00 0.00 0.00 83 1016.7
20260906161506 80 197 2.0 8.0 0.00 0.00 0.00 83 1016.4
20260906161009 80 234 2.0 8.0 0.00 0.00 0.00 83 1016.3
20260906160508 80 224 4.0 7.0 0.00 0.00 0.00 83 1016.3
20260906160016 80 137 2.0 6.0 0.00 0.00 0.00 83 1016.3
20260906155511 80 222 2.0 4.0 0.00 0.00 0.00 84 1016.2
20260906155011 80 234 0.0 3.0 0.00 0.00 0.00 84 1016.0
20260906154521 80 234 0.0 5.0 0.00 0.00 0.00 85 1016.0
20260906154013 79 236 0.0 6.0 0.00 0.00 0.00 85 1016.2
20260906153514 79 201 2.0 7.0 0.00 0.00 0.00 86 1016.2
20260906153027 79 217 2.0 7.0 0.00 0.00 0.00 86 1016.2
20260906152517 79 224 2.0 7.0 0.00 0.00 0.00 87 1016.2
20260906152016 79 195 3.0 9.0 0.00 0.00 0.00 87 1016.2
20260906151525 78 191 3.0 9.0 0.00 0.00 0.00 88 1016.2
20260906151021 78 235 1.0 7.0 0.00 0.00 0.00 88 1016.3
20260906150508 78 182 2.0 8.0 0.00 0.00 0.00 88 1016.3
20260906150016 78 200 4.0 8.0 0.00 0.00 0.00 89 1016.3
20260906145509 78 208 3.0 8.0 0.00 0.00 0.00 89 1016.5
20260906145008 77 223 2.0 8.0 0.00 0.00 0.00 89 1016.5
20260906144520 77 219 3.0 9.0 0.00 0.00 0.00 89 1016.5
20260906144010 77 176 3.0 9.0 0.00 0.00 0.00 90 1016.6
20260906143514 77 202 2.0 8.0 0.00 0.00 0.00 90 1016.5
20260906143026 77 231 1.0 7.0 0.00 0.00 0.00 90 1016.4
20260906142517 77 224 2.0 7.0 0.00 0.00 0.00 90 1016.5
20260906142021 77 226 2.0 7.0 0.00 0.00 0.00 90 1016.3
20260906141530 77 224 1.0 4.0 0.00 0.00 0.00 90 1016.2
20260906141016 76 215 0.0 4.0 0.00 0.00 0.00 90 1016.2
20260906140517 76 224 0.0 7.0 0.00 0.00 0.00 90 1016.2
20260906140036 76 200 2.0 7.0 0.00 0.00 0.00 91 1016.2
20260906135508 76 226 1.0 7.0 0.00 0.00 0.00 91 1016.1
20260906135007 76 232 0.0 5.0 0.00 0.00 0.00 91 1015.9
20260906134515 76 171 1.0 7.0 0.00 0.00 0.00 91 1016.0
20260906134010 76 206 0.0 7.0 0.00 0.00 0.00 91 1015.9
20260906133513 76 243 0.0 5.0 0.00 0.00 0.00 91 1015.9
20260906133018 76 237 0.0 6.0 0.00 0.00 0.00 91 1015.8
20260906132513 76 165 0.0 6.0 0.00 0.02 0.00 91 1015.8
20260906132013 76 129 0.0 3.0 0.00 0.03 0.00 91 1015.7
20260906131528 76 185 0.0 4.0 0.00 0.05 0.00 91 1015.7
20260906131017 76 215 0.0 5.0 0.00 0.06 0.00 91 1015.7
20260906130503 76 226 0.0 5.0 0.00 0.06 0.00 91 1015.7
20260906130014 76 215 1.0 5.0 0.00 0.06 0.00 91 1015.6
20260906125504 76 142 1.0 7.0 0.00 0.07 0.00 91 1015.6
20260906125005 76 174 2.0 7.0 0.00 0.07 0.00 91 1015.5
20260906124516 76 229 1.0 8.0 0.00 0.08 0.00 91 1015.5
20260906124011 76 212 1.0 8.0 0.00 0.09 0.00 91 1015.4
20260906123511 76 235 0.0 7.0 0.00 0.11 0.00 91 1015.4
20260906123033 76 197 1.0 7.0 0.00 0.12 0.00 91 1015.3
20260906122511 76 230 0.0 4.0 0.00 0.13 0.00 91 1015.4
20260906122013 76 225 0.0 3.0 0.00 0.15 0.00 91 1015.3
20260906121525 76 228 0.0 3.0 0.00 0.17 0.00 91 1015.4
20260906121013 75 212 0.0 4.0 0.00 0.21 0.00 91 1015.4
20260906120516 76 220 0.0 8.0 0.00 0.22 0.00 91 1015.4
20260906120028 76 222 0.0 8.0 0.00 0.24 0.00 91 1015.3
20260906115504 76 233 2.0 5.0 0.00 0.26 0.00 91 1015.1
20260906115004 76 187 1.0 5.0 0.00 0.26 0.00 91 1015.1
20260906114511 76 249 0.0 5.0 0.00 0.27 0.00 91 1015.2
20260906114006 76 225 0.0 2.0 0.00 0.28 0.00 91 1015.2
20260906113509 76 233 0.0 3.0 0.00 0.28 0.00 91 1015.2
20260906113016 76 236 0.0 4.0 0.00 0.29 0.00 90 1015.1
20260906112509 76 195 0.0 4.0 0.00 0.32 0.00 90 1015.1
20260906112011 76 234 0.0 5.0 0.00 0.34 0.00 90 1015.0
20260906111522 76 212 0.0 7.0 0.00 0.36 0.00 90 1015.0
20260906111014 76 203 0.0 7.0 0.00 0.36 0.00 90 1014.9
20260906110512 76 232 0.0 4.0 0.00 0.36 0.00 90 1014.9
20260906110027 76 227 0.0 7.0 0.00 0.36 0.00 90 1014.7
20260906105514 76 239 0.0 7.0 0.00 0.36 0.00 90 1014.7
20260906105016 76 251 0.0 6.0 0.00 0.37 0.00 90 1014.7
20260906104508 76 167 0.0 4.0 0.00 0.37 0.00 90 1014.7
20260906104006 76 184 0.0 4.0 0.00 0.37 0.00 90 1014.7
20260906103508 76 156 0.0 6.0 0.00 0.37 0.00 90 1014.7
20260906103012 76 162 0.0 6.0 0.00 0.37 0.00 90 1014.7
20260906102511 76 226 0.0 7.0 0.00 0.37 0.00 90 1014.7
20260906102013 76 195 1.0 7.0 0.00 0.37 0.00 90 1014.7
20260906101519 76 235 0.0 4.0 0.00 0.37 0.00 90 1014.6
20260906101013 76 218 0.0 6.0 0.00 0.38 0.00 90 1014.5
20260906100516 76 230 0.0 6.0 0.00 0.38 0.00 90 1014.5
20260906100025 76 222 0.0 4.0 0.00 0.38 0.00 90 1014.6
20260906095516 76 235 1.0 4.0 0.00 0.38 0.00 90 1014.6
20260906095014 76 213 0.0 6.0 0.00 0.38 0.00 89 1014.6
20260906094531 76 222 0.0 7.0 0.00 0.38 0.00 89 1014.6
20260906094018 76 239 1.0 7.0 0.00 0.38 0.00 89 1014.6
20260906093519 76 200 0.0 4.0 0.00 0.38 0.00 89 1014.7
20260906093022 76 195 0.0 4.0 0.00 0.38 0.00 89 1014.7
20260906092507 76 217 1.0 5.0 0.00 0.38 0.00 89 1014.9
20260906092016 76 230 1.0 6.0 0.00 0.38 0.00 89 1014.9
20260906091521 76 226 1.0 6.0 0.00 0.38 0.00 89 1015.0
20260906091012 76 212 1.0 8.0 0.00 0.38 0.00 89 1015.1
20260906090512 77 228 2.0 8.0 0.00 0.38 0.00 89 1015.1
20260906090023 77 230 2.0 7.0 0.00 0.38 0.00 89 1015.0
20260906085514 77 232 2.0 6.0 0.00 0.38 0.00 89 1015.1
20260906085017 77 237 2.0 5.0 0.00 0.38 0.00 89 1015.2
20260906084530 77 224 0.0 8.0 0.00 0.38 0.00 89 1015.3
20260906084014 77 230 2.0 8.0 0.00 0.38 0.00 89 1015.3
20260906083515 77 207 2.0 9.0 0.00 0.38 0.00 88 1015.2
20260906083031 77 228 2.0 9.0 0.00 0.39 0.00 88 1015.1
20260906082518 77 227 3.0 9.0 0.00 0.39 0.00 88 1015.0
20260906082009 77 220 4.0 9.0 0.00 0.39 0.00 88 1014.9
20260906081521 77 210 3.0 8.0 0.00 0.39 0.00 88 1014.8
20260906081010 77 230 3.0 8.0 0.00 0.39 0.00 88 1014.7
20260906080511 77 228 3.0 8.0 0.00 0.39 0.00 88 1014.6
20260906080020 77 215 3.0 10.0 0.00 0.39 0.00 88 1014.6
20260906075514 77 211 3.0 10.0 0.00 0.39 0.00 88 1014.5
20260906075012 77 220 3.0 9.0 0.00 0.39 0.00 88 1014.6
20260906074526 77 216 3.0 9.0 0.00 0.39 0.00 88 1014.5
20260906074013 77 224 2.0 8.0 0.00 0.39 0.00 88 1014.5
20260906073513 77 263 3.0 8.0 0.00 0.39 0.00 88 1014.6
20260906073046 77 223 3.0 10.0 0.00 0.39 0.00 88 1014.7
20260906072515 77 220 4.0 10.0 0.00 0.39 0.00 88 1014.7
20260906072018 77 202 5.0 13.0 0.00 0.39 0.00 88 1014.9
20260906071533 77 211 4.0 13.0 0.00 0.39 0.00 87 1014.9
20260906071019 77 230 3.0 9.0 0.00 0.39 0.00 87 1014.9
20260906070507 77 181 4.0 9.0 0.00 0.39 0.00 87 1014.9
20260906070017 77 201 4.0 8.0 0.00 0.39 0.00 87 1015.0
20260906065513 77 211 4.0 11.0 0.00 0.39 0.00 87 1015.1
20260906065014 77 193 3.0 11.0 0.00 0.39 0.00 87 1015.0
20260906064525 77 202 4.0 10.0 0.00 0.39 0.00 87 1014.9
20260906064016 77 218 3.0 8.0 0.00 0.39 0.00 86 1015.0
20260906063518 77 226 4.0 9.0 0.00 0.39 0.00 86 1015.1
20260906063030 77 205 3.0 9.0 0.00 0.39 0.00 86 1015.2
20260906062514 77 233 4.0 7.0 0.00 0.39 0.00 86 1015.1
20260906062017 77 235 3.0 8.0 0.00 0.39 0.00 86 1015.1
20260906061532 77 230 3.0 8.0 0.00 0.39 0.00 86 1015.1
20260906061018 77 225 3.0 8.0 0.00 0.39 0.00 86 1015.1
20260906060519 77 230 2.0 9.0 0.00 0.39 0.00 86 1015.1
20260906060015 77 230 3.0 9.0 0.00 0.39 0.00 85 1015.1
20260906055511 77 216 2.0 7.0 0.00 0.39 0.00 85 1015.1
20260906055012 77 268 1.0 8.0 0.00 0.39 0.00 85 1015.2
20260906054523 77 239 3.0 8.0 0.00 0.39 0.00 85 1015.1
20260906054014 77 198 2.0 7.0 0.00 0.39 0.00 85 1015.2
20260906053511 77 185 2.0 7.0 0.00 0.39 0.00 85 1015.3
20260906053035 77 221 1.0 7.0 0.00 0.39 0.00 84 1015.2
20260906052516 77 213 2.0 7.0 0.00 0.39 0.00 84 1015.2
20260906052014 77 231 1.0 9.0 0.00 0.39 0.00 84 1015.2
20260906051531 77 243 1.0 9.0 0.00 0.39 0.00 84 1015.1
20260906051006 77 234 2.0 7.0 0.00 0.39 0.00 83 1015.2
20260906050506 77 232 2.0 6.0 0.00 0.39 0.00 83 1015.2
20260906050013 77 223 1.0 6.0 0.00 0.39 0.00 83 1015.2
20260906045507 77 226 2.0 8.0 0.00 0.39 0.39 83 1015.2
20260906045007 77 217 2.0 8.0 0.00 0.39 0.39 83 1015.2
20260906044517 77 180 2.0 7.0 0.00 0.39 0.39 82 1015.2
20260906044012 77 237 2.0 6.0 0.00 0.39 0.39 82 1015.2
20260906043512 77 212 2.0 6.0 0.00 0.39 0.39 82 1015.3
20260906043038 77 234 1.0 8.0 0.00 0.39 0.39 82 1015.4
20260906042514 77 238 0.0 8.0 0.00 0.39 0.39 82 1015.5
20260906042013 77 208 0.0 5.0 0.00 0.39 0.39 81 1015.6
20260906041533 77 240 0.0 4.0 0.00 0.39 0.39 81 1015.6
20260906041016 77 68 0.0 4.0 0.00 0.39 0.39 81 1015.5
20260906040515 77 162 0.0 5.0 0.00 0.39 0.39 80 1015.7
20260906040036 77 216 0.0 5.0 0.00 0.39 0.39 80 1015.7
20260906035504 78 216 0.0 5.0 0.00 0.39 0.39 80 1015.7
20260906035007 78 225 1.0 4.0 0.00 0.39 0.39 79 1015.6
20260906034522 78 219 0.0 4.0 0.00 0.39 0.39 79 1015.6
20260906034007 78 235 0.0 4.0 0.00 0.39 0.39 79 1015.5
20260906033511 78 235 0.0 4.0 0.00 0.39 0.39 79 1015.4
20260906033025 78 223 0.0 6.0 0.00 0.39 0.39 78 1015.5
20260906032513 78 237 0.0 8.0 0.00 0.39 0.39 78 1015.3
20260906032015 78 233 0.0 8.0 0.00 0.39 0.39 77 1015.2
20260906031526 78 245 1.0 8.0 0.00 0.39 0.39 77 1015.2
20260906031014 79 239 1.0 8.0 0.00 0.39 0.39 77 1015.1
20260906030515 79 187 1.0 5.0 0.00 0.39 0.39 76 1015.1
20260906030030 79 226 1.0 7.0 0.00 0.39 0.39 76 1015.2
20260906025520 79 239 1.0 9.0 0.00 0.39 0.39 76 1015.3
20260906025017 79 234 2.0 9.0 0.00 0.39 0.39 75 1015.3
20260906024510 79 191 1.0 7.0 0.00 0.39 0.39 75 1015.2
20260906024009 80 76 2.0 7.0 0.00 0.39 0.39 74 1015.2
20260906023509 80 225 1.0 7.0 0.00 0.39 0.39 74 1015.3
20260906023014 80 249 2.0 8.0 0.00 0.39 0.39 74 1015.2
20260906022508 80 243 2.0 8.0 0.00 0.39 0.39 74 1015.1
20260906022011 80 240 1.0 7.0 0.00 0.39 0.39 73 1015.0
20260906021524 80 228 1.0 7.0 0.00 0.39 0.39 73 1015.0
20260906021011 80 236 1.0 7.0 0.00 0.39 0.39 72 1015.0
20260906020516 81 239 0.0 6.0 0.00 0.39 0.39 72 1015.0
20260906020026 81 194 1.0 10.0 0.00 0.39 0.39 72 1014.9
20260906015515 81 243 2.0 10.0 0.00 0.39 0.39 71 1014.9
20260906015018 81 139 1.0 4.0 0.00 0.39 0.39 71 1014.9
20260906014541 81 187 0.0 8.0 0.00 0.39 0.39 71 1014.9
20260906014017 81 244 0.0 8.0 0.00 0.39 0.39 70 1014.7
20260906013516 81 179 1.0 6.0 0.00 0.39 0.39 70 1014.6
20260906013013 82 243 0.0 7.0 0.00 0.39 0.39 70 1014.5
20260906012514 82 329 2.0 7.0 0.00 0.39 0.39 69 1014.6
20260906012012 82 233 1.0 7.0 0.00 0.39 0.39 69 1014.4
20260906011521 82 213 1.0 7.0 0.00 0.39 0.39 69 1014.2
20260906011017 82 190 1.0 7.0 0.00 0.39 0.39 68 1014.3
20260906010511 82 247 1.0 6.0 0.00 0.39 0.39 68 1014.4
20260906010027 83 155 0.0 7.0 0.00 0.39 0.39 67 1014.4
20260906005519 83 219 1.0 7.0 0.00 0.39 0.39 66 1014.4
20260906005013 83 209 2.0 7.0 0.00 0.39 0.39 66 1014.4
20260906004530 83 220 1.0 7.0 0.00 0.39 0.39 65 1014.3
20260906004016 84 207 0.0 8.0 0.00 0.39 0.39 65 1014.2
20260906003520 84 215 3.0 8.0 0.00 0.39 0.39 65 1014.2
20260906003030 84 154 2.0 7.0 0.00 0.39 0.39 64 1014.1
20260906002518 85 178 1.0 7.0 0.00 0.39 0.39 63 1014.1
20260906002008 85 226 1.0 8.0 0.00 0.39 0.39 63 1014.2
20260906001514 85 215 3.0 11.0 0.00 0.39 0.39 62 1014.0
20260906001011 86 224 3.0 11.0 0.00 0.39 0.39 61 1014.1
20260906000515 86 209 3.0 9.0 0.00 0.39 0.39 61 1014.1
20260906000023 86 222 2.0 9.0 0.00 0.39 0.39 60 1014.1
20260905235516 86 243 2.0 12.0 0.00 0.39 0.39 60 1014.0
20260905235016 87 230 4.0 12.0 0.00 0.39 0.39 59 1014.0
20260905234528 87 184 1.0 12.0 0.00 0.39 0.39 58 1013.9
20260905234017 87 226 3.0 12.0 0.00 0.39 0.39 58 1014.0
20260905233514 88 238 3.0 11.0 0.00 0.39 0.39 57 1014.1
20260905233031 88 212 3.0 11.0 0.00 0.39 0.39 57 1014.0
20260905232517 89 226 4.0 10.0 0.00 0.39 0.39 56 1013.8
20260905232016 89 228 4.0 10.0 0.00 0.39 0.39 55 1013.8
20260905231535 89 228 3.0 10.0 0.00 0.39 0.39 55 1013.8
20260905231007 88 228 3.0 10.0 0.00 0.39 0.39 54 1013.7
20260905230511 89 226 5.0 11.0 0.00 0.39 0.39 55 1013.7
20260905230018 89 227 3.0 12.0 0.00 0.39 0.39 55 1013.7
20260905225514 89 209 4.0 12.0 0.00 0.39 0.39 54 1013.7
20260905225014 89 216 4.0 11.0 0.00 0.39 0.39 54 1013.8
20260905224534 89 219 4.0 11.0 0.00 0.39 0.39 53 1013.9
20260905224016 89 219 4.0 12.0 0.00 0.39 0.39 52 1013.9
20260905223519 89 207 3.0 13.0 0.00 0.39 0.39 52 1014.0
20260905223034 89 226 5.0 13.0 0.00 0.39 0.39 51 1013.9
20260905222518 90 225 5.0 11.0 0.00 0.39 0.39 51 1013.9
20260905222016 90 220 4.0 11.0 0.00 0.39 0.39 52 1013.9
20260905221531 90 218 5.0 11.0 0.00 0.39 0.39 52 1013.8
20260905221019 90 226 4.0 10.0 0.00 0.39 0.39 51 1013.8
20260905220523 90 206 2.0 9.0 0.00 0.39 0.39 53 1013.7
20260905220031 90 187 4.0 9.0 0.00 0.39 0.39 51 1013.7
20260905215512 89 226 3.0 11.0 0.00 0.39 0.39 53 1013.7
20260905215017 90 231 2.0 11.0 0.00 0.39 0.39 53 1013.7
20260905214524 90 220 1.0 12.0 0.00 0.39 0.39 54 1013.6
20260905214013 90 225 4.0 12.0 0.00 0.39 0.39 54 1013.6
20260905213516 90 222 5.0 12.0 0.00 0.39 0.39 53 1013.6
20260905213029 90 213 3.0 9.0 0.00 0.39 0.39 54 1013.6
20260905212517 90 191 3.0 8.0 0.00 0.39 0.39 54 1013.6
20260905212013 90 247 2.0 9.0 0.00 0.39 0.39 55 1013.7
20260905211531 90 236 1.0 9.0 0.00 0.39 0.39 55 1013.6
20260905211021 90 218 2.0 9.0 0.00 0.39 0.39 56 1013.7
20260905210516 90 221 4.0 11.0 0.00 0.39 0.39 56 1013.7
20260905210010 90 251 5.0 11.0 0.00 0.39 0.39 56 1013.7
20260905205508 89 230 2.0 9.0 0.00 0.39 0.39 56 1013.6
20260905205013 89 225 4.0 9.0 0.00 0.39 0.39 56 1013.6
20260905204519 89 224 3.0 11.0 0.00 0.39 0.39 57 1013.6
20260905204013 89 234 6.0 11.0 0.00 0.39 0.39 56 1013.6
20260905203516 89 234 3.0 9.0 0.00 0.39 0.39 56 1013.6
20260905203023 89 230 0.0 8.0 0.00 0.39 0.39 58 1013.5
20260905202503 89 209 1.0 8.0 0.00 0.39 0.39 57 1013.6
20260905202003 89 217 3.0 7.0 0.00 0.39 0.39 56 1013.5
20260905201504 89 272 2.0 10.0 0.00 0.39 0.39 58 1013.4
20260905201003 88 236 2.0 10.0 0.00 0.39 0.39 57 1013.4
20260905200504 88 232 2.0 8.0 0.00 0.39 0.39 57 1013.5
20260905200011 88 239 1.0 4.0 0.00 0.39 0.39 58 1013.4
20260905195507 87 185 0.0 7.0 0.00 0.39 0.39 59 1013.3
20260905195011 87 209 2.0 7.0 0.00 0.39 0.39 56 1013.5
20260905194513 87 211 1.0 8.0 0.00 0.39 0.39 57 1013.6
20260905194012 87 229 3.0 10.0 0.00 0.39 0.39 57 1013.6
20260905193513 88 198 4.0 10.0 0.00 0.39 0.39 55 1013.7
20260905193024 88 198 1.0 8.0 0.00 0.39 0.39 57 1013.6
20260905192516 87 206 2.0 8.0 0.00 0.39 0.39 58 1013.6